Voltar ao catálogo

SL-14 R/B

AtivoPO
NORAD 17178·ROCKET BODY·🇷🇺 Russia

Lançado Dec 2, 1986 de Plesetsk Cosmodrome

Loading…

Próximas Passagens (próximas 24 horas)

TLE

AtualizadoSource: Space-Track

Época: Sep 14, 2026, 15:42 UTC

1 17178U 86094B   26257.65420646  .00000015  00000-0  36111-4 0  9998
2 17178  82.6064 307.6677 0001440 291.4976 243.3991 12.42050916803715

Acompanhe SL-14 R/B em tempo real com AllMySat

Download on the App Store